CW9849 Weather Reports


Display with metric or nautical units.
time (UTC)temp
F
wind
direction
speed
MPH
gust
MPH
rain 1hr
in
rain 24hr
in
rain mn
in
humidity
%
barometer
mb
20260507044507 49 162 2.0 4.0 0.00 0.00 0.00 81 1015.0
20260507043006 49 89 1.0 3.0 0.00 0.00 0.00 81 1014.9
20260507041505 49 147 1.0 3.0 0.00 0.00 0.00 81 1014.9
20260507040005 49 108 1.0 3.0 0.00 0.00 0.00 81 1015.0
20260507034502 49 83 2.0 3.0 0.00 0.00 0.00 81 1014.9
20260507033002 48 117 1.0 3.0 0.00 0.00 0.00 81 1014.9
20260507031604 48 89 1.0 3.0 0.00 0.00 0.00 80 1015.1
20260507030110 48 117 1.0 3.0 0.00 0.00 0.00 80 1015.1
20260507024613 48 145 1.0 3.0 0.00 0.00 0.00 79 1015.1
20260507023056 47 140 1.0 3.0 0.00 0.00 0.00 79 1015.0
20260507021558 47 124 1.0 2.0 0.00 0.00 0.00 78 1015.0
20260507020100 47 117 1.0 3.0 0.00 0.00 0.00 78 1015.1
20260507014558 47 147 1.0 3.0 0.00 0.00 0.00 77 1015.3
20260507013059 47 161 1.0 3.0 0.00 0.00 0.00 76 1015.4
20260507011554 47 171 1.0 2.0 0.00 0.00 0.00 76 1015.3
20260507010048 47 152 1.0 2.0 0.00 0.00 0.00 75 1015.3
20260507004547 48 117 0.0 2.0 0.00 0.00 0.00 75 1015.2
20260507003042 48 46 1.0 2.0 0.00 0.00 0.00 75 1015.4
20260507001542 48 344 1.0 2.0 0.00 0.00 0.00 75 1015.6
20260507000041 48 331 1.0 2.0 0.00 0.00 0.00 75 1015.6
20260506234551 49 23 1.0 2.0 0.00 0.00 0.00 75 1015.7
20260506233047 49 1 2.0 3.0 0.00 0.00 0.00 74 1015.7
20260506231537 49 344 1.0 3.0 0.00 0.00 0.00 74 1015.7
20260506230036 49 9 1.0 3.0 0.00 0.00 0.00 74 1015.7
20260506224535 50 344 1.0 3.0 0.00 0.00 0.00 74 1015.9
20260506223033 50 331 2.0 3.0 0.00 0.00 0.00 74 1015.8
20260506221532 50 314 1.0 3.0 0.00 0.00 0.00 74 1015.9
20260506220032 50 317 2.0 3.0 0.00 0.00 0.00 74 1015.9
20260506214531 50 322 2.0 3.0 0.00 0.00 0.00 74 1015.9
20260506213029 50 322 2.0 4.0 0.00 0.00 0.00 74 1015.9
20260506211529 49 303 2.0 5.0 0.00 0.00 0.00 74 1015.8
20260506210033 50 296 3.0 5.0 0.00 0.00 0.00 74 1015.7
20260506204528 50 328 3.0 5.0 0.00 0.00 0.00 74 1015.7
20260506203036 50 323 3.0 5.0 0.00 0.00 0.00 74 1015.7
20260506201528 50 322 3.0 5.0 0.00 0.00 0.00 73 1015.7
20260506200026 50 329 4.0 6.0 0.00 0.00 0.00 73 1015.7
20260506194525 50 340 4.0 5.0 0.00 0.00 0.00 73 1015.8
20260506193024 51 308 3.0 6.0 0.00 0.00 0.00 74 1015.8
20260506191524 51 317 3.0 6.0 0.00 0.00 0.00 74 1015.8
20260506190023 51 314 3.0 6.0 0.00 0.00 0.00 73 1015.8
20260506184522 52 317 4.0 6.0 0.00 0.00 0.00 73 1015.7
20260506183021 53 327 3.0 7.0 0.00 0.00 0.00 72 1015.7
20260506181520 53 330 3.0 7.0 0.00 0.00 0.00 71 1015.7
20260506180026 54 314 3.0 8.0 0.00 0.00 0.00 69 1015.6
20260506174521 55 9 4.0 7.0 0.00 0.00 0.00 69 1015.5
20260506173021 56 21 5.0 9.0 0.00 0.00 0.00 67 1015.3
20260506171517 56 1 4.0 9.0 0.00 0.00 0.00 68 1015.5
20260506170016 56 322 6.0 11.0 0.00 0.00 0.00 68 1015.5
20260506164515 56 307 6.0 10.0 0.00 0.00 0.00 68 1015.5
20260506163021 56 18 6.0 10.0 0.00 0.00 0.00 67 1015.4
20260506161514 57 346 5.0 11.0 0.00 0.00 0.00 66 1015.4
20260506160010 58 8 4.0 11.0 0.00 0.00 0.00 66 1015.3
20260506154508 58 46 7.0 13.0 0.00 0.00 0.00 66 1015.5
20260506153007 58 56 6.0 11.0 0.00 0.00 0.00 65 1015.4
20260506151504 59 6 7.0 10.0 0.00 0.00 0.00 66 1015.4
20260506150005 59 13 8.0 11.0 0.00 0.00 0.00 67 1015.5
20260506144503 58 356 7.0 11.0 0.00 0.00 0.00 67 1015.7
20260506143100 59 6 6.0 12.0 0.00 0.00 0.00 66 1015.8
20260506141556 59 11 8.0 11.0 0.00 0.00 0.00 66 1015.9
20260506140053 59 4 7.0 13.0 0.00 0.00 0.00 68 1015.9
20260506134550 58 356 7.0 10.0 0.00 0.00 0.00 68 1016.0
20260506133049 58 354 7.0 11.0 0.00 0.00 0.00 68 1016.0
20260506131553 58 27 8.0 11.0 0.00 0.00 0.00 68 1016.1
20260506130100 57 9 7.0 11.0 0.00 0.00 0.00 69 1016.0
20260506124553 57 35 6.0 12.0 0.00 0.00 0.00 70 1016.0
20260506123044 57 28 7.0 11.0 0.00 0.00 0.00 71 1016.1
20260506121543 57 30 6.0 11.0 0.00 0.00 0.00 70 1016.1
20260506120042 57 15 7.0 12.0 0.00 0.00 0.00 70 1016.1
20260506114542 57 23 8.0 12.0 0.00 0.00 0.00 70 1016.2
20260506113052 57 21 6.0 12.0 0.00 0.00 0.00 71 1016.1
20260506111535 56 32 7.0 11.0 0.00 0.00 0.00 72 1016.2
20260506110035 56 46 8.0 12.0 0.00 0.00 0.00 72 1016.1
20260506104538 56 37 7.0 12.0 0.00 0.00 0.00 72 1016.2
20260506103043 56 41 8.0 13.0 0.00 0.00 0.00 72 1016.1
20260506101543 55 51 8.0 12.0 0.00 0.00 0.00 72 1016.1
20260506100037 55 40 6.0 13.0 0.00 0.00 0.00 72 1016.0
20260506094530 55 62 7.0 14.0 0.00 0.00 0.00 71 1016.0
20260506093038 55 46 6.0 12.0 0.00 0.00 0.00 72 1016.0
20260506091525 54 39 7.0 13.0 0.00 0.00 0.00 72 1015.8
20260506090021 54 39 8.0 12.0 0.00 0.00 0.00 73 1015.8
20260506084518 53 51 6.0 12.0 0.00 0.00 0.00 73 1015.8
20260506083014 52 40 6.0 12.0 0.00 0.00 0.00 74 1015.9
20260506081513 52 37 7.0 12.0 0.00 0.00 0.00 74 1015.8
20260506073016 52 37 6.0 10.0 0.00 0.00 0.00 77 1015.8
20260506071504 51 25 6.0 10.0 0.00 0.00 0.00 78 1015.7
20260506061556 51 21 7.0 13.0 0.00 0.00 0.00 79 1015.6